{"data":{"norad_id":38338,"epoch":"2026-09-20T05:12:52.013088Z","epoch_age_seconds":38796,"freshness":"FRESH","line1":"1 38338U 12025B   26263.21726867  .00000251  00000+0  59099-4 0  9996","line2":"2 38338  98.1281 219.0888 0005523 162.6294 197.5098 14.62274471765237","mean_motion":14.62274471,"eccentricity":0.0005523,"inclination_deg":98.1281,"raan_deg":219.0888,"arg_perigee_deg":162.6294,"mean_anomaly_deg":197.5098,"bstar":5.9099e-5,"rev_number":76523,"period_min":98.47672434678,"perigee_km":681.93801524003,"apogee_km":689.74088362608,"semimajor_km":7063.9764494331,"source":"CELESTRAK","updated_at":"2026-09-20T09:00:33.893035Z"}}